AFR832 LFPG-DNAA

Flight info

Callsign AFR832
Flight time 6h 26m
Altitude 37000
Route AGOPA DCT ARKIP DCT ARMAL DCT ARTAX DCT BEBIX DCT LMG DCT UVELI DCT OSMOB DCT VAVIX DCT NETUK DCT PPN DCT NOLSA DCT ALEPO DCT VASUM DCT BANEV DCT BAN DCT PINAR DCT CJN L27 BLN DCT MGA DCT PIMOS DCT GALTO UN869 MABAP DCT BULIS UR981 BAKAB/N0469F360 UA603 LIPET/N0466F350 DCT TATAT DCT GANDA UL683 ABC
Aircraft B772/H-SDE2E3FGHIJ3J5M1P2RWXYZ/LB1D1

Departure

Time 2026-04-22 11:39
Airport Charles de Gaulle International Airport (LFPG)

Arrival

Time 2026-04-22 18:05
Airport Nnamdi Azikiwe International Airport (DNAA)
Time Latitude Longitude Altitude Speed Heading
2026-04-22 10:47 49.00144 2.57728 365 ft 0 kts 357°
2026-04-22 11:25 49.00124 2.57729 366 ft 4 kts 358°
2026-04-22 11:25 49.00098 2.57729 364 ft 4 kts
2026-04-22 11:25 49.00072 2.57721 366 ft 4 kts 35°
2026-04-22 11:26 49.00062 2.57697 367 ft 4 kts 86°
2026-04-22 11:26 49.00060 2.57656 367 ft 4 kts 84°
2026-04-22 11:26 49.00057 2.57615 365 ft 4 kts 83°
2026-04-22 11:26 49.00054 2.57580 363 ft 2 kts 85°
2026-04-22 11:27 49.00052 2.57542 363 ft 4 kts 85°
2026-04-22 11:27 49.00050 2.57501 366 ft 4 kts 85°
2026-04-22 11:27 49.00048 2.57460 367 ft 4 kts 85°
2026-04-22 11:27 49.00047 2.57428 366 ft 3 kts 85°
2026-04-22 11:28 49.00044 2.57388 363 ft 4 kts 86°
2026-04-22 11:28 49.00043 2.57347 359 ft 4 kts 86°
2026-04-22 11:28 49.00042 2.57308 359 ft 4 kts 101°
2026-04-22 11:28 49.00051 2.57285 367 ft 4 kts 180°
2026-04-22 11:29 49.00045 2.57284 364 ft 4 kts 183°
2026-04-22 11:29 49.00039 2.57284 365 ft 0 kts 183°
2026-04-22 11:34 49.00028 2.57283 366 ft 5 kts 183°
2026-04-22 11:34 48.99996 2.57282 364 ft 5 kts 180°
2026-04-22 11:34 48.99969 2.57263 367 ft 5 kts 228°
2026-04-22 11:34 48.99955 2.57203 365 ft 8 kts 259°
2026-04-22 11:35 48.99948 2.57107 364 ft 11 kts 265°
2026-04-22 11:35 48.99942 2.56980 361 ft 14 kts 265°
2026-04-22 11:35 48.99933 2.56822 359 ft 16 kts 265°
2026-04-22 11:35 48.99924 2.56646 360 ft 17 kts 265°
2026-04-22 11:36 48.99914 2.56468 366 ft 17 kts 265°
2026-04-22 11:36 48.99905 2.56291 359 ft 17 kts 265°
2026-04-22 11:36 48.99896 2.56114 359 ft 17 kts 265°
2026-04-22 11:36 48.99890 2.55947 361 ft 15 kts 277°
2026-04-22 11:37 48.99892 2.55822 364 ft 11 kts 232°
2026-04-22 11:37 48.99819 2.55799 365 ft 11 kts 176°
2026-04-22 11:37 48.99742 2.55808 361 ft 11 kts 175°
2026-04-22 11:37 48.99665 2.55819 363 ft 11 kts 176°
2026-04-22 11:38 48.99610 2.55841 364 ft 7 kts 129°
2026-04-22 11:38 48.99605 2.55915 360 ft 10 kts 85°
2026-04-22 11:38 48.99680 2.57314 357 ft 134 kts 85°
2026-04-22 11:39 48.99756 2.58893 855 ft 149 kts 83°
2026-04-22 11:39 48.99847 2.60441 1799 ft 149 kts 84°
2026-04-22 11:39 48.99930 2.62026 2627 ft 151 kts 84°
2026-04-22 11:39 49.00012 2.63649 3286 ft 157 kts 86°
2026-04-22 11:40 49.00088 2.65289 4071 ft 154 kts 86°
2026-04-22 11:40 49.00180 2.66971 4676 ft 168 kts 87°
2026-04-22 11:40 49.00275 2.68852 5018 ft 188 kts 87°
2026-04-22 11:40 49.00383 2.70908 5471 ft 200 kts 86°
2026-04-22 11:41 49.00511 2.73121 5814 ft 219 kts 86°
2026-04-22 11:41 49.00642 2.75513 6234 ft 234 kts 86°
2026-04-22 11:41 49.00732 2.78032 6768 ft 241 kts 92°
2026-04-22 11:41 49.00497 2.80539 7277 ft 245 kts 100°
2026-04-22 11:42 49.00184 2.83126 7873 ft 250 kts 98°
2026-04-22 11:42 48.99908 2.85760 8509 ft 254 kts 98°
2026-04-22 11:42 48.99633 2.88429 9192 ft 256 kts 98°
2026-04-22 11:42 48.99364 2.91124 9795 ft 260 kts 98°
2026-04-22 11:43 48.99071 2.93846 10466 ft 260 kts 99°
2026-04-22 11:43 48.98737 2.96638 10650 ft 276 kts 105°
2026-04-22 11:43 48.97804 2.99278 10808 ft 297 kts 129°
2026-04-22 11:43 48.96147 3.01328 11035 ft 321 kts 149°
2026-04-22 11:44 48.93982 3.02370 11585 ft 336 kts 170°
2026-04-22 11:44 48.91608 3.02135 12313 ft 350 kts 193°
2026-04-22 11:44 48.89357 3.00619 13129 ft 363 kts 212°
2026-04-22 11:44 48.87537 2.97959 13896 ft 365 kts 227°
2026-04-22 11:45 48.85849 2.95034 14620 ft 370 kts 228°
2026-04-22 11:45 48.84152 2.92068 15433 ft 374 kts 229°
2026-04-22 11:45 48.82430 2.89062 16173 ft 379 kts 229°
2026-04-22 11:45 48.80701 2.86063 17136 ft 378 kts 230°
2026-04-22 11:46 48.78961 2.83066 17977 ft 380 kts 230°
2026-04-22 11:46 48.77201 2.80050 18675 ft 385 kts 231°
2026-04-22 11:46 48.75411 2.77002 19311 ft 388 kts 232°
2026-04-22 11:46 48.73616 2.73959 20042 ft 389 kts 232°
2026-04-22 11:47 48.71802 2.70889 20675 ft 393 kts 232°
2026-04-22 11:47 48.69968 2.67787 21279 ft 397 kts 233°
2026-04-22 11:47 48.68121 2.64668 21903 ft 400 kts 233°
2026-04-22 11:47 48.66254 2.61522 22503 ft 403 kts 234°
2026-04-22 11:48 48.64373 2.58356 23098 ft 406 kts 233°
2026-04-22 11:48 48.62478 2.55172 23709 ft 410 kts 234°
2026-04-22 11:48 48.60592 2.52006 24243 ft 411 kts 233°
2026-04-22 11:48 48.58670 2.48787 24815 ft 413 kts 233°
2026-04-22 11:49 48.56743 2.45562 25368 ft 414 kts 233°
2026-04-22 11:49 48.54781 2.42282 25911 ft 417 kts 234°
2026-04-22 11:49 48.52857 2.39068 26441 ft 419 kts 234°
2026-04-22 11:49 48.50899 2.35801 26950 ft 421 kts 234°
2026-04-22 11:50 48.48925 2.32512 27464 ft 424 kts 234°
2026-04-22 11:50 48.46941 2.29210 27991 ft 426 kts 234°
2026-04-22 11:50 48.44943 2.25890 28517 ft 429 kts 234°
2026-04-22 11:50 48.42937 2.22560 29040 ft 431 kts 234°
2026-04-22 11:51 48.40916 2.19208 29531 ft 433 kts 233°
2026-04-22 11:51 48.38890 2.15856 30143 ft 433 kts 233°
2026-04-22 11:51 48.36860 2.12497 30590 ft 434 kts 233°
2026-04-22 11:51 48.34822 2.09131 31014 ft 436 kts 233°
2026-04-22 11:52 48.32773 2.05756 31420 ft 437 kts 232°
2026-04-22 11:52 48.30438 2.02757 31627 ft 453 kts 217°
2026-04-22 11:52 48.27491 2.00859 31920 ft 470 kts 200°
2026-04-22 11:52 48.24213 2.00218 32295 ft 482 kts 185°
2026-04-22 11:53 48.20838 2.00424 32548 ft 488 kts 182°
2026-04-22 11:53 48.17443 2.00660 32876 ft 489 kts 183°
2026-04-22 11:53 48.14042 2.00835 33247 ft 489 kts 184°
2026-04-22 11:53 48.10632 2.00949 33549 ft 491 kts 184°
2026-04-22 11:54 48.07202 2.01045 33845 ft 493 kts 184°
2026-04-22 11:54 48.03774 2.01202 34210 ft 494 kts 184°
2026-04-22 11:54 48.00334 2.01407 34550 ft 494 kts 183°
2026-04-22 11:54 47.96949 2.01624 34863 ft 494 kts 182°
2026-04-22 11:55 47.93467 2.01846 35171 ft 494 kts 182°
2026-04-22 11:55 47.90075 2.02055 35486 ft 495 kts 182°
2026-04-22 11:55 47.86636 2.02259 35810 ft 495 kts 182°
2026-04-22 11:55 47.83193 2.02459 36107 ft 495 kts 182°
2026-04-22 11:56 47.79752 2.02656 36378 ft 495 kts 182°
2026-04-22 11:56 47.76315 2.02853 36630 ft 496 kts 182°
2026-04-22 11:56 47.72854 2.03051 36884 ft 497 kts 182°
2026-04-22 11:56 47.69389 2.03249 37044 ft 500 kts 182°
2026-04-22 11:57 47.62389 2.03651 37096 ft 503 kts 182°
2026-04-22 11:57 47.55457 2.04060 37078 ft 496 kts 182°
2026-04-22 11:58 47.48567 2.04461 37092 ft 496 kts 182°
2026-04-22 11:58 47.41661 2.04861 37085 ft 497 kts 182°
2026-04-22 11:59 47.34748 2.05124 37065 ft 495 kts 186°
2026-04-22 11:59 47.27971 2.03876 37079 ft 489 kts 195°
2026-04-22 12:00 47.21265 2.02079 37074 ft 490 kts 195°
2026-04-22 12:00 47.14546 2.00340 37065 ft 491 kts 194°
2026-04-22 12:01 47.07806 1.98637 37074 ft 491 kts 194°
2026-04-22 12:01 47.01062 1.96946 37069 ft 492 kts 194°
2026-04-22 12:02 46.94318 1.95256 37054 ft 491 kts 194°
2026-04-22 12:02 46.87581 1.93570 37068 ft 491 kts 194°
2026-04-22 12:03 46.80851 1.91890 37070 ft 490 kts 194°
2026-04-22 12:03 46.74124 1.90214 37067 ft 490 kts 194°
2026-04-22 12:04 46.67402 1.88544 37066 ft 490 kts 194°
2026-04-22 12:04 46.60679 1.86878 37065 ft 490 kts 194°
2026-04-22 12:05 46.53968 1.85219 37045 ft 489 kts 194°
2026-04-22 12:05 46.47262 1.83566 37051 ft 489 kts 194°
2026-04-22 12:06 46.40561 1.81918 37054 ft 488 kts 194°
2026-04-22 12:06 46.33863 1.80274 37043 ft 488 kts 194°
2026-04-22 12:07 46.27313 1.78050 37035 ft 478 kts 207°
2026-04-22 12:07 46.21635 1.73338 37042 ft 465 kts 225°
2026-04-22 12:08 46.16799 1.67201 37043 ft 463 kts 227°
2026-04-22 12:08 46.11970 1.61099 37033 ft 466 kts 226°
2026-04-22 12:09 46.07059 1.55001 37034 ft 467 kts 225°
2026-04-22 12:09 46.02132 1.48914 37011 ft 467 kts 225°
2026-04-22 12:10 45.97271 1.42751 37003 ft 463 kts 231°
2026-04-22 12:10 45.93924 1.36788 37021 ft 455 kts 240°
2026-04-22 12:11 45.90897 1.28916 37020 ft 449 kts 248°
2026-04-22 12:11 45.88116 1.20897 37012 ft 448 kts 248°
2026-04-22 12:12 45.85291 1.12925 37016 ft 448 kts 247°
2026-04-22 12:12 45.82240 1.05123 37016 ft 452 kts 238°
2026-04-22 12:13 45.78085 0.98286 37017 ft 459 kts 227°
2026-04-22 12:13 45.73214 0.92421 36982 ft 461 kts 224°
2026-04-22 12:14 45.68264 0.86607 36980 ft 461 kts 224°
2026-04-22 12:14 45.63322 0.80762 36978 ft 461 kts 224°
2026-04-22 12:15 45.58386 0.74898 36975 ft 461 kts 224°
2026-04-22 12:15 45.53461 0.69048 36948 ft 460 kts 224°
2026-04-22 12:16 45.48537 0.63216 36958 ft 460 kts 224°
2026-04-22 12:16 45.43615 0.57402 36959 ft 459 kts 224°
2026-04-22 12:17 45.38696 0.51604 36953 ft 459 kts 224°
2026-04-22 12:17 45.33778 0.45821 36955 ft 458 kts 224°
2026-04-22 12:18 45.28859 0.40051 36949 ft 458 kts 224°
2026-04-22 12:18 45.23943 0.34297 36952 ft 458 kts 224°
2026-04-22 12:19 45.19026 0.28555 36935 ft 458 kts 224°
2026-04-22 12:19 45.14107 0.22823 36949 ft 458 kts 224°
2026-04-22 12:20 45.09188 0.17104 36949 ft 458 kts 224°
2026-04-22 12:20 45.04295 0.11429 36951 ft 458 kts 224°
2026-04-22 12:21 44.99367 0.05730 36937 ft 458 kts 224°
2026-04-22 12:21 44.94434 0.00038 36944 ft 458 kts 224°
2026-04-22 12:22 44.89503 -0.05642 36951 ft 458 kts 223°
2026-04-22 12:22 44.84563 -0.11321 36948 ft 458 kts 223°
2026-04-22 12:23 44.79617 -0.16993 36939 ft 458 kts 223°
2026-04-22 12:23 44.74672 -0.22651 36950 ft 458 kts 223°
2026-04-22 12:24 44.69720 -0.28307 36948 ft 459 kts 223°
2026-04-22 12:24 44.64754 -0.33938 36951 ft 459 kts 221°
2026-04-22 12:25 44.59492 -0.39086 36942 ft 461 kts 218°
2026-04-22 12:25 44.54188 -0.44144 36946 ft 461 kts 219°
2026-04-22 12:26 44.48887 -0.49224 36955 ft 462 kts 219°
2026-04-22 12:26 44.43586 -0.54311 36953 ft 462 kts 219°
2026-04-22 12:27 44.38282 -0.59392 36948 ft 462 kts 219°
2026-04-22 12:27 44.32974 -0.64465 36963 ft 462 kts 219°
2026-04-22 12:28 44.27660 -0.69531 36962 ft 463 kts 218°
2026-04-22 12:28 44.22297 -0.74515 36956 ft 463 kts 218°
2026-04-22 12:29 44.16911 -0.79439 36962 ft 463 kts 218°
2026-04-22 12:29 44.11523 -0.84364 36971 ft 463 kts 218°
2026-04-22 12:30 44.03486 -0.91715 36984 ft 463 kts 218°
2026-04-22 12:31 43.98105 -0.96627 36984 ft 463 kts 218°
2026-04-22 12:31 43.92723 -1.01529 36983 ft 463 kts 218°
2026-04-22 12:32 43.87339 -1.06422 37006 ft 463 kts 218°
2026-04-22 12:32 43.79262 -1.13742 37003 ft 463 kts 217°
2026-04-22 12:33 43.73871 -1.18614 36996 ft 463 kts 217°
2026-04-22 12:33 43.68479 -1.23476 36997 ft 463 kts 217°
2026-04-22 12:34 43.63085 -1.28330 37000 ft 463 kts 217°
2026-04-22 12:34 43.57690 -1.33174 37016 ft 463 kts 217°
2026-04-22 12:35 43.52291 -1.38011 37024 ft 463 kts 217°
2026-04-22 12:35 43.46888 -1.42842 37020 ft 463 kts 217°
2026-04-22 12:36 43.41482 -1.47665 37040 ft 463 kts 217°
2026-04-22 12:36 43.36072 -1.52482 37045 ft 463 kts 217°
2026-04-22 12:37 43.30696 -1.57258 37042 ft 463 kts 217°
2026-04-22 12:37 43.24852 -1.61199 37043 ft 472 kts 202°
2026-04-22 12:38 43.18424 -1.62983 37059 ft 478 kts 190°
2026-04-22 12:38 43.11803 -1.63972 37031 ft 479 kts 190°
2026-04-22 12:39 43.01861 -1.65537 37009 ft 479 kts 191°
2026-04-22 12:40 42.95244 -1.66625 36999 ft 480 kts 191°
2026-04-22 12:40 42.88614 -1.67716 36995 ft 480 kts 191°
2026-04-22 12:41 42.81977 -1.68802 36992 ft 480 kts 191°
2026-04-22 12:41 42.75379 -1.70124 36992 ft 476 kts 198°
2026-04-22 12:42 42.69145 -1.72962 36995 ft 470 kts 208°
2026-04-22 12:42 42.63318 -1.76910 36994 ft 468 kts 211°
2026-04-22 12:43 42.57498 -1.80873 36968 ft 468 kts 211°
2026-04-22 12:43 42.51659 -1.84788 36967 ft 468 kts 210°
2026-04-22 12:44 42.45824 -1.88682 36970 ft 468 kts 210°
2026-04-22 12:44 42.40020 -1.92552 36962 ft 468 kts 210°
2026-04-22 12:45 42.34179 -1.96445 36961 ft 468 kts 210°
2026-04-22 12:45 42.28343 -2.00336 36974 ft 468 kts 210°
2026-04-22 12:46 42.22503 -2.04217 36971 ft 468 kts 210°
2026-04-22 12:46 42.16656 -2.08087 36955 ft 468 kts 210°
2026-04-22 12:47 42.10806 -2.11952 36981 ft 468 kts 210°
2026-04-22 12:47 42.04959 -2.15810 36970 ft 469 kts 210°
2026-04-22 12:48 41.99101 -2.19667 36982 ft 469 kts 210°
2026-04-22 12:48 41.93238 -2.23519 36981 ft 469 kts 210°
2026-04-22 12:49 41.87371 -2.27368 36978 ft 470 kts 210°
2026-04-22 12:49 41.81492 -2.31214 36988 ft 470 kts 210°
2026-04-22 12:50 41.75612 -2.35054 36992 ft 470 kts 210°
2026-04-22 12:50 41.69736 -2.38884 36990 ft 469 kts 210°
2026-04-22 12:51 41.63869 -2.42701 36981 ft 469 kts 210°
2026-04-22 12:51 41.57999 -2.46511 36984 ft 469 kts 210°
2026-04-22 12:52 41.52134 -2.50312 36963 ft 469 kts 210°
2026-04-22 12:52 41.46266 -2.54099 36988 ft 468 kts 209°
2026-04-22 12:53 41.40433 -2.57846 36994 ft 469 kts 209°
2026-04-22 12:53 41.34472 -2.61395 36988 ft 473 kts 200°
2026-04-22 12:54 41.27934 -2.62734 36996 ft 481 kts 182°
2026-04-22 12:54 41.21232 -2.62109 36994 ft 484 kts 178°
2026-04-22 12:55 41.15653 -2.61507 37003 ft 484 kts 179°
2026-04-22 12:55 41.07803 -2.60771 37012 ft 484 kts 179°
2026-04-22 12:56 41.01082 -2.60176 37014 ft 484 kts 179°
2026-04-22 12:56 40.94362 -2.59576 37020 ft 485 kts 179°
2026-04-22 12:57 40.87631 -2.58974 37005 ft 485 kts 179°
2026-04-22 12:57 40.80898 -2.58373 37012 ft 485 kts 179°
2026-04-22 12:58 40.74169 -2.57771 37023 ft 484 kts 179°
2026-04-22 12:58 40.67453 -2.57175 37016 ft 484 kts 179°
2026-04-22 12:59 40.61866 -2.56679 37030 ft 484 kts 179°
2026-04-22 12:59 40.55148 -2.56084 37026 ft 484 kts 179°
2026-04-22 13:00 40.48435 -2.55491 37014 ft 483 kts 179°
2026-04-22 13:00 40.41729 -2.54923 37025 ft 482 kts 181°
2026-04-22 13:01 40.35141 -2.55808 37030 ft 474 kts 196°
2026-04-22 13:01 40.28929 -2.58524 37030 ft 469 kts 205°
2026-04-22 13:02 40.22848 -2.61660 37028 ft 470 kts 205°
2026-04-22 13:02 40.16752 -2.64758 37027 ft 470 kts 204°
2026-04-22 13:03 40.10641 -2.67820 37024 ft 470 kts 204°
2026-04-22 13:03 40.04533 -2.70864 37029 ft 470 kts 204°
2026-04-22 13:04 39.98473 -2.73880 37027 ft 469 kts 204°
2026-04-22 13:04 39.92391 -2.76902 37028 ft 468 kts 204°
2026-04-22 13:05 39.86312 -2.79917 37033 ft 467 kts 204°
2026-04-22 13:05 39.80245 -2.82922 37032 ft 466 kts 204°
2026-04-22 13:06 39.74185 -2.85917 37035 ft 466 kts 204°
2026-04-22 13:06 39.68135 -2.88902 37034 ft 465 kts 204°
2026-04-22 13:07 39.62080 -2.91884 37028 ft 465 kts 204°
2026-04-22 13:07 39.56022 -2.94864 37027 ft 465 kts 204°
2026-04-22 13:08 39.49969 -2.97847 37022 ft 465 kts 204°
2026-04-22 13:08 39.43924 -3.00823 37023 ft 465 kts 204°
2026-04-22 13:09 39.37867 -3.03793 37021 ft 466 kts 204°
2026-04-22 13:09 39.31800 -3.06739 37021 ft 466 kts 203°
2026-04-22 13:10 39.25729 -3.09678 37021 ft 466 kts 203°
2026-04-22 13:10 39.19659 -3.12615 37017 ft 466 kts 203°
2026-04-22 13:11 39.13626 -3.15531 37019 ft 466 kts 203°
2026-04-22 13:11 39.07556 -3.18461 37010 ft 466 kts 203°
2026-04-22 13:12 39.01473 -3.21391 37013 ft 466 kts 203°
2026-04-22 13:12 38.95393 -3.24317 37011 ft 467 kts 203°
2026-04-22 13:13 38.89309 -3.27249 37011 ft 467 kts 203°
2026-04-22 13:13 38.83228 -3.30175 36998 ft 467 kts 203°
2026-04-22 13:14 38.77140 -3.33099 37000 ft 467 kts 203°
2026-04-22 13:14 38.71050 -3.36018 37005 ft 467 kts 203°
2026-04-22 13:15 38.64961 -3.38932 37008 ft 467 kts 203°
2026-04-22 13:15 38.58873 -3.41839 37001 ft 467 kts 203°
2026-04-22 13:16 38.52788 -3.44739 37013 ft 466 kts 203°
2026-04-22 13:16 38.46722 -3.47626 37004 ft 465 kts 203°
2026-04-22 13:17 38.40661 -3.50505 37007 ft 464 kts 203°
2026-04-22 13:17 38.34615 -3.53372 37008 ft 463 kts 203°
2026-04-22 13:18 38.28582 -3.56229 37011 ft 462 kts 203°
2026-04-22 13:18 38.22595 -3.59058 37012 ft 462 kts 203°
2026-04-22 13:19 38.16572 -3.61900 37007 ft 462 kts 203°
2026-04-22 13:19 38.10669 -3.65053 37004 ft 459 kts 207°
2026-04-22 13:20 38.04845 -3.68381 37007 ft 460 kts 207°
2026-04-22 13:20 37.99010 -3.71709 37006 ft 460 kts 207°
2026-04-22 13:21 37.93163 -3.75017 37003 ft 460 kts 207°
2026-04-22 13:21 37.87305 -3.78317 36993 ft 461 kts 207°
2026-04-22 13:22 37.81439 -3.81613 37000 ft 461 kts 207°
2026-04-22 13:22 37.75571 -3.84906 37013 ft 461 kts 207°
2026-04-22 13:23 37.69697 -3.88197 36988 ft 462 kts 207°
2026-04-22 13:23 37.63829 -3.91479 36974 ft 462 kts 207°
2026-04-22 13:24 37.57959 -3.94757 36987 ft 461 kts 207°
2026-04-22 13:24 37.52092 -3.98027 36994 ft 461 kts 207°
2026-04-22 13:25 37.46230 -4.01289 36994 ft 460 kts 207°
2026-04-22 13:25 37.40372 -4.04543 36975 ft 460 kts 207°
2026-04-22 13:26 37.34510 -4.07793 36979 ft 460 kts 207°
2026-04-22 13:26 37.28649 -4.11039 36984 ft 460 kts 207°
2026-04-22 13:27 37.22790 -4.14277 36983 ft 460 kts 207°
2026-04-22 13:27 37.16935 -4.17507 36988 ft 460 kts 207°
2026-04-22 13:28 37.11076 -4.20734 36976 ft 460 kts 207°
2026-04-22 13:28 37.05212 -4.23959 36982 ft 461 kts 207°
2026-04-22 13:29 36.99336 -4.27185 36973 ft 461 kts 207°
2026-04-22 13:29 36.93459 -4.30406 36969 ft 461 kts 207°
2026-04-22 13:30 36.87621 -4.33600 36962 ft 461 kts 207°
2026-04-22 13:30 36.81766 -4.36848 36969 ft 459 kts 210°
2026-04-22 13:31 36.76327 -4.40929 36965 ft 456 kts 217°
2026-04-22 13:31 36.71000 -4.45226 36965 ft 457 kts 216°
2026-04-22 13:32 36.65644 -4.49500 36966 ft 457 kts 216°
2026-04-22 13:32 36.60269 -4.53757 36971 ft 458 kts 216°
2026-04-22 13:33 36.54880 -4.58012 36972 ft 458 kts 216°
2026-04-22 13:33 36.49497 -4.62255 36979 ft 458 kts 216°
2026-04-22 13:34 36.44127 -4.66483 36984 ft 457 kts 216°
2026-04-22 13:34 36.38760 -4.70701 36977 ft 456 kts 216°
2026-04-22 13:35 36.33406 -4.74903 36992 ft 455 kts 216°
2026-04-22 13:35 36.28063 -4.79089 36997 ft 454 kts 216°
2026-04-22 13:36 36.22729 -4.83263 37005 ft 453 kts 216°
2026-04-22 13:36 36.17399 -4.87427 37003 ft 453 kts 216°
2026-04-22 13:37 36.12079 -4.91597 37000 ft 452 kts 217°
2026-04-22 13:37 36.06790 -4.95805 36996 ft 452 kts 217°
2026-04-22 13:38 36.01509 -5.00004 37020 ft 452 kts 217°
2026-04-22 13:38 35.93565 -5.06295 36993 ft 452 kts 217°
2026-04-22 13:39 35.88261 -5.10486 37011 ft 453 kts 217°
2026-04-22 13:39 35.82964 -5.14694 36983 ft 452 kts 218°
2026-04-22 13:40 35.77926 -5.19297 36975 ft 451 kts 221°
2026-04-22 13:40 35.72915 -5.23947 36970 ft 451 kts 221°
2026-04-22 13:41 35.67927 -5.28555 36963 ft 451 kts 220°
2026-04-22 13:41 35.62896 -5.33182 36945 ft 452 kts 220°
2026-04-22 13:42 35.57868 -5.37793 36963 ft 451 kts 220°
2026-04-22 13:42 35.52831 -5.42404 36970 ft 451 kts 220°
2026-04-22 13:43 35.47793 -5.47009 36967 ft 451 kts 220°
2026-04-22 13:43 35.42759 -5.51604 36968 ft 451 kts 220°
2026-04-22 13:44 35.37720 -5.56196 36970 ft 451 kts 220°
2026-04-22 13:44 35.32681 -5.60780 36963 ft 451 kts 220°
2026-04-22 13:45 35.27649 -5.65351 36964 ft 451 kts 220°
2026-04-22 13:45 35.22616 -5.69915 36968 ft 450 kts 220°
2026-04-22 13:46 35.17589 -5.74468 36970 ft 449 kts 220°
2026-04-22 13:46 35.12568 -5.79007 36969 ft 448 kts 220°
2026-04-22 13:47 35.08408 -5.82762 36947 ft 447 kts 220°
2026-04-22 13:47 35.03411 -5.87267 36959 ft 446 kts 220°
2026-04-22 13:48 34.97608 -5.92490 36959 ft 446 kts 220°
2026-04-22 13:48 34.93421 -5.96252 36962 ft 446 kts 220°
2026-04-22 13:49 34.88458 -6.00706 36969 ft 446 kts 220°
2026-04-22 13:49 34.83462 -6.05183 36954 ft 447 kts 220°
2026-04-22 13:50 34.78455 -6.09662 36954 ft 447 kts 219°
2026-04-22 13:50 34.73448 -6.14134 36960 ft 446 kts 219°
2026-04-22 13:51 34.68441 -6.18598 36955 ft 446 kts 219°
2026-04-22 13:51 34.63435 -6.23056 36954 ft 446 kts 219°
2026-04-22 13:52 34.58428 -6.27508 36955 ft 446 kts 219°
2026-04-22 13:52 34.53422 -6.31952 36949 ft 446 kts 219°
2026-04-22 13:53 34.48419 -6.36386 36957 ft 445 kts 219°
2026-04-22 13:53 34.43415 -6.40815 36957 ft 445 kts 219°
2026-04-22 13:54 34.38410 -6.45239 36956 ft 445 kts 219°
2026-04-22 13:54 34.33409 -6.49652 36955 ft 445 kts 219°
2026-04-22 13:55 34.28404 -6.54061 36941 ft 445 kts 219°
2026-04-22 13:55 34.23408 -6.58456 36941 ft 444 kts 219°
2026-04-22 13:56 34.18450 -6.62812 36943 ft 443 kts 219°
2026-04-22 13:56 34.13461 -6.67189 36942 ft 443 kts 219°
2026-04-22 13:57 34.08474 -6.71560 36938 ft 443 kts 219°
2026-04-22 13:57 34.03474 -6.75907 36938 ft 443 kts 218°
2026-04-22 13:58 33.98391 -6.80103 36934 ft 443 kts 217°
2026-04-22 13:58 33.93282 -6.84262 36945 ft 443 kts 217°
2026-04-22 13:59 33.88180 -6.88431 36948 ft 443 kts 217°
2026-04-22 13:59 33.83083 -6.92606 36957 ft 443 kts 217°
2026-04-22 14:00 33.77986 -6.96781 36953 ft 443 kts 217°
2026-04-22 14:00 33.72889 -7.00949 36962 ft 443 kts 218°
2026-04-22 14:01 33.67792 -7.05112 36966 ft 443 kts 218°
2026-04-22 14:01 33.62691 -7.09271 36968 ft 443 kts 218°
2026-04-22 14:02 33.57589 -7.13424 36967 ft 444 kts 218°
2026-04-22 14:02 33.52476 -7.17580 36963 ft 444 kts 218°
2026-04-22 14:03 33.47359 -7.21734 36960 ft 444 kts 218°
2026-04-22 14:03 33.42240 -7.25884 36953 ft 444 kts 218°
2026-04-22 14:04 33.37118 -7.30029 36953 ft 444 kts 217°
2026-04-22 14:04 33.32027 -7.34144 36950 ft 445 kts 217°
2026-04-22 14:05 33.26901 -7.38282 36949 ft 445 kts 217°
2026-04-22 14:06 33.19214 -7.44476 36939 ft 445 kts 217°
2026-04-22 14:06 33.14084 -7.48603 36933 ft 445 kts 217°
2026-04-22 14:07 33.08866 -7.52579 36943 ft 446 kts 214°
2026-04-22 14:07 33.03507 -7.56320 36923 ft 446 kts 214°
2026-04-22 14:08 32.98151 -7.60058 36934 ft 446 kts 214°
2026-04-22 14:08 32.92805 -7.63807 36927 ft 446 kts 214°
2026-04-22 14:09 32.87464 -7.67553 36917 ft 445 kts 214°
2026-04-22 14:09 32.82131 -7.71286 36921 ft 445 kts 214°
2026-04-22 14:10 32.76792 -7.75022 36915 ft 445 kts 214°
2026-04-22 14:10 32.71456 -7.78753 36914 ft 445 kts 214°
2026-04-22 14:11 32.66121 -7.82477 36911 ft 445 kts 214°
2026-04-22 14:11 32.60786 -7.86196 36907 ft 444 kts 214°
2026-04-22 14:12 32.55454 -7.89909 36917 ft 444 kts 214°
2026-04-22 14:12 32.50120 -7.93618 36918 ft 445 kts 214°
2026-04-22 14:13 32.44782 -7.97324 36912 ft 445 kts 214°
2026-04-22 14:13 32.39446 -8.01023 36915 ft 445 kts 214°
2026-04-22 14:14 32.34138 -8.04698 36921 ft 445 kts 215°
2026-04-22 14:14 32.28795 -8.08393 36920 ft 445 kts 215°
2026-04-22 14:15 32.23449 -8.12085 36916 ft 445 kts 215°
2026-04-22 14:15 32.18103 -8.15772 36921 ft 445 kts 215°
2026-04-22 14:16 32.12539 -8.19039 36917 ft 451 kts 205°
2026-04-22 14:16 32.06478 -8.21106 36911 ft 458 kts 196°
2026-04-22 14:17 32.00216 -8.22472 36919 ft 458 kts 196°
2026-04-22 14:17 31.93939 -8.23812 36918 ft 458 kts 196°
2026-04-22 14:18 31.87663 -8.25176 36912 ft 459 kts 196°
2026-04-22 14:18 31.81383 -8.26559 36913 ft 459 kts 196°
2026-04-22 14:19 31.75100 -8.27944 36898 ft 459 kts 197°
2026-04-22 14:19 31.68814 -8.29330 36912 ft 460 kts 197°
2026-04-22 14:20 31.59364 -8.31408 36913 ft 461 kts 197°
2026-04-22 14:20 31.53096 -8.32783 36914 ft 462 kts 197°
2026-04-22 14:21 31.43583 -8.34865 36912 ft 462 kts 197°
2026-04-22 14:22 31.34096 -8.36940 36925 ft 463 kts 197°
2026-04-22 14:23 31.24603 -8.39010 36933 ft 462 kts 198°
2026-04-22 14:23 31.18289 -8.40393 36939 ft 461 kts 198°
2026-04-22 14:24 31.12034 -8.41745 36948 ft 459 kts 198°
2026-04-22 14:24 31.05758 -8.43104 36958 ft 459 kts 198°
2026-04-22 14:25 30.99481 -8.44467 36949 ft 459 kts 198°
2026-04-22 14:25 30.93209 -8.45825 36952 ft 458 kts 198°
2026-04-22 14:26 30.86948 -8.47181 36971 ft 459 kts 198°
2026-04-22 14:26 30.80650 -8.48546 36961 ft 461 kts 198°
2026-04-22 14:27 30.74324 -8.49907 36946 ft 462 kts 198°
2026-04-22 14:27 30.68002 -8.51269 36936 ft 462 kts 198°
2026-04-22 14:28 30.61680 -8.52629 36931 ft 462 kts 199°
2026-04-22 14:28 30.55358 -8.53988 36943 ft 462 kts 199°
2026-04-22 14:29 30.49031 -8.55346 36941 ft 463 kts 199°
2026-04-22 14:29 30.42704 -8.56702 36932 ft 463 kts 199°
2026-04-22 14:30 30.36364 -8.58058 36939 ft 463 kts 199°
2026-04-22 14:30 30.30020 -8.59414 36940 ft 464 kts 199°
2026-04-22 14:31 30.23678 -8.60768 36936 ft 463 kts 198°
2026-04-22 14:31 30.17350 -8.62116 36934 ft 462 kts 198°
2026-04-22 14:32 30.11076 -8.63451 36923 ft 461 kts 199°
2026-04-22 14:32 30.04773 -8.64790 36930 ft 459 kts 199°
2026-04-22 14:33 29.98478 -8.66130 36942 ft 461 kts 199°
2026-04-22 14:33 29.92123 -8.67478 36937 ft 462 kts 199°
2026-04-22 14:34 29.85853 -8.68807 36932 ft 462 kts 199°
2026-04-22 14:34 29.79530 -8.70143 36935 ft 461 kts 200°
2026-04-22 14:35 29.73217 -8.71474 36936 ft 461 kts 200°
2026-04-22 14:35 29.66901 -8.72806 36933 ft 461 kts 200°
2026-04-22 14:36 29.60590 -8.74138 36924 ft 461 kts 200°
2026-04-22 14:36 29.54283 -8.75465 36923 ft 460 kts 200°
2026-04-22 14:37 29.49019 -8.76570 36896 ft 458 kts 201°
2026-04-22 14:37 29.42747 -8.77886 36911 ft 458 kts 201°
2026-04-22 14:38 29.36477 -8.79202 36905 ft 458 kts 201°
2026-04-22 14:38 29.30205 -8.80518 36895 ft 458 kts 201°
2026-04-22 14:39 29.23927 -8.81831 36873 ft 459 kts 202°
2026-04-22 14:39 29.17688 -8.83134 36873 ft 459 kts 202°
2026-04-22 14:40 29.08267 -8.85098 36897 ft 459 kts 202°
2026-04-22 14:40 29.01991 -8.86405 36892 ft 458 kts 202°
2026-04-22 14:41 28.95717 -8.87710 36870 ft 458 kts 202°
2026-04-22 14:41 28.89447 -8.89011 36875 ft 458 kts 202°
2026-04-22 14:42 28.83176 -8.90312 36876 ft 458 kts 202°
2026-04-22 14:42 28.76904 -8.91613 36877 ft 458 kts 202°
2026-04-22 14:43 28.70625 -8.92914 36879 ft 459 kts 202°
2026-04-22 14:43 28.64346 -8.94211 36864 ft 459 kts 202°
2026-04-22 14:44 28.58062 -8.95509 36872 ft 459 kts 202°
2026-04-22 14:44 28.51780 -8.96806 36889 ft 459 kts 202°
2026-04-22 14:45 28.45491 -8.98101 36883 ft 459 kts 202°
2026-04-22 14:45 28.39204 -8.99394 36881 ft 459 kts 202°
2026-04-22 14:46 28.32922 -9.00683 36873 ft 458 kts 203°
2026-04-22 14:46 28.26653 -9.01970 36887 ft 458 kts 203°
2026-04-22 14:47 28.20385 -9.03255 36885 ft 458 kts 203°
2026-04-22 14:47 28.14127 -9.04538 36886 ft 457 kts 203°
2026-04-22 14:48 28.07864 -9.05818 36892 ft 457 kts 203°
2026-04-22 14:48 28.01603 -9.07096 36883 ft 457 kts 203°
2026-04-22 14:49 27.95343 -9.08374 36898 ft 457 kts 203°
2026-04-22 14:49 27.89125 -9.09641 36902 ft 456 kts 203°
2026-04-22 14:50 27.82887 -9.10910 36894 ft 454 kts 203°
2026-04-22 14:50 27.76675 -9.12173 36888 ft 453 kts 204°
2026-04-22 14:51 27.70475 -9.13351 36882 ft 459 kts 197°
2026-04-22 14:51 27.67184 -9.13087 36896 ft 491 kts 180°
2026-04-22 14:51 27.63875 -9.11774 36897 ft 520 kts 162°
2026-04-22 14:52 27.60828 -9.09423 36909 ft 537 kts 151°
2026-04-22 14:52 27.57913 -9.06769 36892 ft 540 kts 150°
2026-04-22 14:52 27.52105 -9.01354 36902 ft 543 kts 150°
2026-04-22 14:53 27.46233 -8.95995 36902 ft 544 kts 150°
2026-04-22 14:53 27.40298 -8.90709 36895 ft 544 kts 151°
2026-04-22 14:54 27.34335 -8.85445 36895 ft 545 kts 151°
2026-04-22 14:54 27.28380 -8.80189 36887 ft 543 kts 151°
2026-04-22 14:55 27.22491 -8.74988 36885 ft 541 kts 151°
2026-04-22 14:55 27.16584 -8.69776 36880 ft 539 kts 151°
2026-04-22 14:56 27.10682 -8.64581 36897 ft 540 kts 151°
2026-04-22 14:56 27.04755 -8.59372 36898 ft 542 kts 151°
2026-04-22 14:57 26.98811 -8.54153 36894 ft 543 kts 151°
2026-04-22 14:57 26.92853 -8.48926 36885 ft 544 kts 151°
2026-04-22 14:58 26.86892 -8.43703 36884 ft 543 kts 151°
2026-04-22 14:58 26.80941 -8.38496 36887 ft 542 kts 151°
2026-04-22 14:59 26.74995 -8.33303 36890 ft 542 kts 151°
2026-04-22 14:59 26.69053 -8.28121 36878 ft 542 kts 151°
2026-04-22 15:00 26.63097 -8.22935 36855 ft 543 kts 151°
2026-04-22 15:00 26.57140 -8.17752 36873 ft 543 kts 151°
2026-04-22 15:01 26.51179 -8.12574 36871 ft 543 kts 151°
2026-04-22 15:01 26.45214 -8.07399 36870 ft 543 kts 151°
2026-04-22 15:02 26.39248 -8.02230 36866 ft 543 kts 151°
2026-04-22 15:02 26.33282 -7.97068 36828 ft 543 kts 151°
2026-04-22 15:03 26.27323 -7.91918 36870 ft 542 kts 151°
2026-04-22 15:03 26.21357 -7.86771 36870 ft 542 kts 151°
2026-04-22 15:04 26.15391 -7.81631 36865 ft 543 kts 151°
2026-04-22 15:04 26.09414 -7.76486 36863 ft 543 kts 151°
2026-04-22 15:05 26.03435 -7.71347 36841 ft 543 kts 151°
2026-04-22 15:05 25.97458 -7.66216 36857 ft 543 kts 151°
2026-04-22 15:06 25.91478 -7.61091 36857 ft 543 kts 151°
2026-04-22 15:06 25.85490 -7.55966 36862 ft 544 kts 151°
2026-04-22 15:07 25.79526 -7.50867 36857 ft 545 kts 151°
2026-04-22 15:07 25.73473 -7.45698 36832 ft 545 kts 151°
2026-04-22 15:08 25.67469 -7.40576 36850 ft 545 kts 151°
2026-04-22 15:08 25.61496 -7.35488 36855 ft 545 kts 151°
2026-04-22 15:09 25.55481 -7.30370 36845 ft 545 kts 151°
2026-04-22 15:09 25.49467 -7.25262 36851 ft 545 kts 151°
2026-04-22 15:10 25.43457 -7.20160 36835 ft 544 kts 151°
2026-04-22 15:10 25.37448 -7.15064 36845 ft 544 kts 151°
2026-04-22 15:11 25.31431 -7.09968 36847 ft 545 kts 151°
2026-04-22 15:11 25.25406 -7.04871 36842 ft 546 kts 151°
2026-04-22 15:12 25.19375 -6.99775 36847 ft 546 kts 151°
2026-04-22 15:12 25.13355 -6.94694 36855 ft 544 kts 151°
2026-04-22 15:13 25.07346 -6.89629 36839 ft 543 kts 151°
2026-04-22 15:13 25.01351 -6.84582 36845 ft 541 kts 151°
2026-04-22 15:14 24.95353 -6.79543 36851 ft 543 kts 151°
2026-04-22 15:14 24.89339 -6.74496 36856 ft 544 kts 151°
2026-04-22 15:15 24.83309 -6.69440 36838 ft 545 kts 151°
2026-04-22 15:15 24.77280 -6.64389 36849 ft 545 kts 151°
2026-04-22 15:16 24.71288 -6.59376 36848 ft 544 kts 151°
2026-04-22 15:16 24.65224 -6.54309 36847 ft 543 kts 151°
2026-04-22 15:17 24.59247 -6.49322 36852 ft 543 kts 151°
2026-04-22 15:17 24.53230 -6.44309 36856 ft 543 kts 151°
2026-04-22 15:18 24.47154 -6.39255 36852 ft 545 kts 151°
2026-04-22 15:18 24.41148 -6.34262 36851 ft 546 kts 151°
2026-04-22 15:19 24.35082 -6.29225 36847 ft 547 kts 151°
2026-04-22 15:19 24.29012 -6.24189 36846 ft 547 kts 151°
2026-04-22 15:20 24.22948 -6.19164 36837 ft 545 kts 151°
2026-04-22 15:20 24.16911 -6.14170 36844 ft 543 kts 151°
2026-04-22 15:21 24.10884 -6.09198 36840 ft 542 kts 151°
2026-04-22 15:21 24.04855 -6.04232 36843 ft 543 kts 151°
2026-04-22 15:22 23.98813 -5.99260 36852 ft 544 kts 151°
2026-04-22 15:22 23.92755 -5.94278 36837 ft 545 kts 150°
2026-04-22 15:23 23.86700 -5.89302 36847 ft 545 kts 150°
2026-04-22 15:23 23.80639 -5.84327 36849 ft 545 kts 151°
2026-04-22 15:24 23.75600 -5.80197 36846 ft 544 kts 151°
2026-04-22 15:24 23.69545 -5.75239 36844 ft 544 kts 151°
2026-04-22 15:25 23.63497 -5.70293 36824 ft 543 kts 150°
2026-04-22 15:25 23.57455 -5.65359 36840 ft 543 kts 150°
2026-04-22 15:26 23.51401 -5.60420 36846 ft 544 kts 150°
2026-04-22 15:26 23.45334 -5.55478 36842 ft 545 kts 150°
2026-04-22 15:27 23.39260 -5.50534 36834 ft 545 kts 150°
2026-04-22 15:27 23.33186 -5.45594 36803 ft 545 kts 150°
2026-04-22 15:28 23.27125 -5.40671 36835 ft 543 kts 150°
2026-04-22 15:28 23.21074 -5.35763 36838 ft 542 kts 150°
2026-04-22 15:29 23.15032 -5.30869 36829 ft 543 kts 150°
2026-04-22 15:30 23.05931 -5.23510 36830 ft 545 kts 150°
2026-04-22 15:30 22.99846 -5.18594 36816 ft 545 kts 150°
2026-04-22 15:31 22.93775 -5.13693 36823 ft 543 kts 151°
2026-04-22 15:31 22.87759 -5.08842 36821 ft 542 kts 151°
2026-04-22 15:32 22.81712 -5.03975 36822 ft 541 kts 151°
2026-04-22 15:32 22.75670 -4.99117 36824 ft 541 kts 151°
2026-04-22 15:33 22.69627 -4.94264 36796 ft 541 kts 151°
2026-04-22 15:33 22.63596 -4.89424 36813 ft 539 kts 151°
2026-04-22 15:34 22.57581 -4.84604 36829 ft 538 kts 151°
2026-04-22 15:34 22.51565 -4.79788 36815 ft 537 kts 151°
2026-04-22 15:35 22.45554 -4.74982 36811 ft 537 kts 151°
2026-04-22 15:35 22.39543 -4.70180 36829 ft 537 kts 151°
2026-04-22 15:36 22.33543 -4.65392 36816 ft 535 kts 151°
2026-04-22 15:36 22.27564 -4.60626 36817 ft 533 kts 151°
2026-04-22 15:37 22.21594 -4.55874 36820 ft 533 kts 151°
2026-04-22 15:37 22.15623 -4.51127 36824 ft 534 kts 151°
2026-04-22 15:38 22.09625 -4.46363 36826 ft 535 kts 151°
2026-04-22 15:38 22.00630 -4.39226 36821 ft 535 kts 151°
2026-04-22 15:39 21.94632 -4.34472 36825 ft 535 kts 151°
2026-04-22 15:39 21.88637 -4.29727 36821 ft 535 kts 151°
2026-04-22 15:40 21.82647 -4.24991 36830 ft 534 kts 151°
2026-04-22 15:40 21.76657 -4.20261 36832 ft 534 kts 151°
2026-04-22 15:41 21.70673 -4.15539 36816 ft 533 kts 151°
2026-04-22 15:41 21.64702 -4.10833 36823 ft 532 kts 151°
2026-04-22 15:42 21.58736 -4.06136 36829 ft 531 kts 151°
2026-04-22 15:42 21.52808 -4.01474 36829 ft 532 kts 151°
2026-04-22 15:43 21.46843 -3.96787 36825 ft 532 kts 151°
2026-04-22 15:43 21.40867 -3.92095 36832 ft 532 kts 151°
2026-04-22 15:44 21.34888 -3.87406 36825 ft 532 kts 151°
2026-04-22 15:44 21.28905 -3.82723 36830 ft 532 kts 151°
2026-04-22 15:45 21.22917 -3.78042 36824 ft 533 kts 151°
2026-04-22 15:45 21.16925 -3.73361 36830 ft 533 kts 151°
2026-04-22 15:46 21.10927 -3.68678 36823 ft 534 kts 151°
2026-04-22 15:46 21.04932 -3.64001 36832 ft 533 kts 150°
2026-04-22 15:47 20.98942 -3.59333 36831 ft 532 kts 151°
2026-04-22 15:47 20.92958 -3.54675 36808 ft 532 kts 151°
2026-04-22 15:48 20.86984 -3.50030 36816 ft 531 kts 151°
2026-04-22 15:48 20.81004 -3.45385 36828 ft 531 kts 151°
2026-04-22 15:49 20.75025 -3.40745 36811 ft 531 kts 150°
2026-04-22 15:49 20.69087 -3.36142 36819 ft 531 kts 150°
2026-04-22 15:50 20.63107 -3.31511 36824 ft 531 kts 150°
2026-04-22 15:50 20.57124 -3.26882 36819 ft 531 kts 150°
2026-04-22 15:51 20.51140 -3.22257 36823 ft 531 kts 150°
2026-04-22 15:51 20.45156 -3.17635 36820 ft 531 kts 150°
2026-04-22 15:52 20.39187 -3.13030 36813 ft 529 kts 150°
2026-04-22 15:52 20.33225 -3.08435 36822 ft 529 kts 150°
2026-04-22 15:53 20.27265 -3.03847 36821 ft 529 kts 150°
2026-04-22 15:53 20.21295 -2.99256 36820 ft 530 kts 150°
2026-04-22 15:54 20.15313 -2.94660 36819 ft 531 kts 150°
2026-04-22 15:54 20.09314 -2.90054 36800 ft 531 kts 150°
2026-04-22 15:55 20.03323 -2.85459 36819 ft 531 kts 150°
2026-04-22 15:55 19.97324 -2.80862 36813 ft 531 kts 150°
2026-04-22 15:56 19.91332 -2.76275 36817 ft 531 kts 150°
2026-04-22 15:56 19.85337 -2.71690 36815 ft 531 kts 150°
2026-04-22 15:57 19.79348 -2.67114 36824 ft 530 kts 150°
2026-04-22 15:57 19.73348 -2.62535 36809 ft 531 kts 150°
2026-04-22 15:58 19.67387 -2.57990 36816 ft 532 kts 150°
2026-04-22 15:58 19.61374 -2.53408 36812 ft 532 kts 150°
2026-04-22 15:59 19.55362 -2.48832 36811 ft 532 kts 150°
2026-04-22 15:59 19.49344 -2.44255 36810 ft 532 kts 150°
2026-04-22 16:00 19.44350 -2.40460 36789 ft 532 kts 150°
2026-04-22 16:00 19.37326 -2.35129 36810 ft 531 kts 150°
2026-04-22 16:01 19.31322 -2.30576 36814 ft 531 kts 150°
2026-04-22 16:01 19.25316 -2.26026 36813 ft 531 kts 150°
2026-04-22 16:02 19.19303 -2.21475 36807 ft 531 kts 150°
2026-04-22 16:02 19.13287 -2.16925 36810 ft 531 kts 150°
2026-04-22 16:03 19.07278 -2.12384 36794 ft 531 kts 149°
2026-04-22 16:03 19.01270 -2.07849 36801 ft 530 kts 149°
2026-04-22 16:04 18.95266 -2.03321 36803 ft 530 kts 149°
2026-04-22 16:04 18.89299 -1.98825 36802 ft 530 kts 149°
2026-04-22 16:05 18.83293 -1.94302 36801 ft 530 kts 149°
2026-04-22 16:05 18.77281 -1.89780 36815 ft 531 kts 150°
2026-04-22 16:06 18.71268 -1.85261 36802 ft 531 kts 149°
2026-04-22 16:06 18.65260 -1.80749 36803 ft 530 kts 149°
2026-04-22 16:07 18.59248 -1.76237 36801 ft 530 kts 149°
2026-04-22 16:07 18.53236 -1.71734 36801 ft 530 kts 149°
2026-04-22 16:08 18.47217 -1.67235 36801 ft 530 kts 149°
2026-04-22 16:08 18.41204 -1.62743 36783 ft 530 kts 149°
2026-04-22 16:09 18.35201 -1.58259 36799 ft 528 kts 149°
2026-04-22 16:09 18.29208 -1.53787 36803 ft 528 kts 149°
2026-04-22 16:10 18.23213 -1.49317 36801 ft 529 kts 149°
2026-04-22 16:10 18.17203 -1.44840 36803 ft 530 kts 149°
2026-04-22 16:11 18.11181 -1.40359 36797 ft 531 kts 149°
2026-04-22 16:11 18.05147 -1.35874 36797 ft 531 kts 149°
2026-04-22 16:12 18.00134 -1.32150 36794 ft 531 kts 149°
2026-04-22 16:12 17.94104 -1.27671 36794 ft 531 kts 149°
2026-04-22 16:13 17.88078 -1.23200 36794 ft 530 kts 149°
2026-04-22 16:13 17.82051 -1.18731 36790 ft 530 kts 149°
2026-04-22 16:14 17.76028 -1.14270 36798 ft 530 kts 150°
2026-04-22 16:14 17.70010 -1.09816 36780 ft 529 kts 149°
2026-04-22 16:15 17.63999 -1.05371 36789 ft 528 kts 150°
2026-04-22 16:15 17.58030 -1.00960 36792 ft 528 kts 150°
2026-04-22 16:16 17.52024 -0.96526 36786 ft 528 kts 150°
2026-04-22 16:16 17.46014 -0.92093 36783 ft 528 kts 150°
2026-04-22 16:17 17.40004 -0.87663 36790 ft 528 kts 150°
2026-04-22 16:17 17.34002 -0.83243 36785 ft 526 kts 149°
2026-04-22 16:18 17.28017 -0.78838 36779 ft 525 kts 149°
2026-04-22 16:18 17.22043 -0.74446 36791 ft 526 kts 150°
2026-04-22 16:19 17.16048 -0.70044 36790 ft 528 kts 150°
2026-04-22 16:19 17.10027 -0.65624 36790 ft 530 kts 150°
2026-04-22 16:20 17.03984 -0.61192 36771 ft 531 kts 149°
2026-04-22 16:20 16.97973 -0.56783 36775 ft 525 kts 149°
2026-04-22 16:21 16.92014 -0.52417 36781 ft 521 kts 149°
2026-04-22 16:21 16.86087 -0.48080 36804 ft 520 kts 149°
2026-04-22 16:22 16.77223 -0.41604 36808 ft 522 kts 149°
2026-04-22 16:23 16.68284 -0.35077 36793 ft 523 kts 149°
2026-04-22 16:23 16.62351 -0.30746 36796 ft 519 kts 149°
2026-04-22 16:24 16.53511 -0.24303 36798 ft 515 kts 149°
2026-04-22 16:25 16.47635 -0.20025 36807 ft 515 kts 149°
2026-04-22 16:25 16.38801 -0.13600 36805 ft 517 kts 149°
2026-04-22 16:26 16.32894 -0.09304 36803 ft 517 kts 149°
2026-04-22 16:26 16.26980 -0.05157 36804 ft 506 kts 157°
2026-04-22 16:27 16.23777 -0.03722 36796 ft 497 kts 168°
2026-04-22 16:27 16.20458 -0.02850 36806 ft 489 kts 176°
2026-04-22 16:27 16.13777 -0.02509 36817 ft 479 kts 187°
2026-04-22 16:28 16.07087 -0.02559 36805 ft 482 kts 186°
2026-04-22 16:28 16.00358 -0.02567 36807 ft 485 kts 186°
2026-04-22 16:29 15.93604 -0.02538 36806 ft 485 kts 185°
2026-04-22 16:29 15.86928 -0.02495 36794 ft 481 kts 185°
2026-04-22 16:30 15.80254 -0.02452 36795 ft 478 kts 185°
2026-04-22 16:30 15.73610 -0.02413 36801 ft 477 kts 185°
2026-04-22 16:31 15.66975 -0.02377 36797 ft 477 kts 185°
2026-04-22 16:31 15.60321 -0.02342 36785 ft 479 kts 185°
2026-04-22 16:32 15.53646 -0.02304 36796 ft 481 kts 185°
2026-04-22 16:32 15.46941 -0.02266 36791 ft 483 kts 185°
2026-04-22 16:33 15.40217 -0.02228 36794 ft 484 kts 185°
2026-04-22 16:33 15.33482 -0.02189 36781 ft 484 kts 185°
2026-04-22 16:34 15.26760 -0.02150 36776 ft 483 kts 185°
2026-04-22 16:34 15.20049 -0.02112 36778 ft 482 kts 185°
2026-04-22 16:35 15.13339 -0.02074 36782 ft 482 kts 185°
2026-04-22 16:35 15.06631 -0.02036 36777 ft 482 kts 185°
2026-04-22 16:36 14.99960 -0.01999 36779 ft 483 kts 185°
2026-04-22 16:36 14.93242 -0.01961 36775 ft 483 kts 185°
2026-04-22 16:37 14.86550 -0.01922 36764 ft 479 kts 184°
2026-04-22 16:37 14.79902 -0.01884 36770 ft 476 kts 184°
2026-04-22 16:38 14.73287 -0.01847 36773 ft 475 kts 184°
2026-04-22 16:38 14.66673 -0.01811 36779 ft 476 kts 184°
2026-04-22 16:39 14.60051 -0.01775 36773 ft 477 kts 184°
2026-04-22 16:39 14.53410 -0.01737 36775 ft 477 kts 184°
2026-04-22 16:40 14.46764 -0.01700 36766 ft 478 kts 184°
2026-04-22 16:41 14.36801 -0.01643 36761 ft 477 kts 184°
2026-04-22 16:41 14.30170 -0.01606 36762 ft 476 kts 184°
2026-04-22 16:42 14.23538 -0.01569 36759 ft 476 kts 184°
2026-04-22 16:42 14.16922 -0.01532 36758 ft 475 kts 184°
2026-04-22 16:43 14.10326 -0.01495 36750 ft 473 kts 184°
2026-04-22 16:43 14.03790 -0.01458 36748 ft 472 kts 184°
2026-04-22 16:44 13.97230 -0.01369 36754 ft 473 kts 179°
2026-04-22 16:44 13.93979 -0.00723 36747 ft 481 kts 166°
2026-04-22 16:44 13.90868 0.00593 36748 ft 487 kts 155°
2026-04-22 16:45 13.85319 0.04677 36743 ft 493 kts 144°
2026-04-22 16:45 13.79926 0.09076 36761 ft 496 kts 144°
2026-04-22 16:46 13.74482 0.13463 36752 ft 498 kts 145°
2026-04-22 16:46 13.68990 0.17822 36757 ft 499 kts 145°
2026-04-22 16:47 13.63485 0.22164 36756 ft 498 kts 145°
2026-04-22 16:47 13.58925 0.25757 36740 ft 496 kts 145°
2026-04-22 16:48 13.52534 0.30793 36742 ft 494 kts 145°
2026-04-22 16:48 13.47090 0.35081 36759 ft 493 kts 145°
2026-04-22 16:49 13.41653 0.39363 36752 ft 492 kts 145°
2026-04-22 16:49 13.36234 0.43628 36751 ft 490 kts 145°
2026-04-22 16:50 13.30822 0.47884 36762 ft 490 kts 145°
2026-04-22 16:50 13.25407 0.52141 36759 ft 490 kts 145°
2026-04-22 16:51 13.19994 0.56392 36751 ft 490 kts 145°
2026-04-22 16:51 13.14571 0.60651 36754 ft 491 kts 145°
2026-04-22 16:52 13.09190 0.64873 36764 ft 490 kts 145°
2026-04-22 16:52 13.03785 0.69112 36753 ft 489 kts 145°
2026-04-22 16:53 12.98391 0.73340 36758 ft 488 kts 145°
2026-04-22 16:53 12.93002 0.77562 36760 ft 488 kts 145°
2026-04-22 16:54 12.87604 0.81787 36756 ft 489 kts 145°
2026-04-22 16:54 12.82190 0.86023 36762 ft 490 kts 145°
2026-04-22 16:55 12.76766 0.90265 36753 ft 491 kts 145°
2026-04-22 16:55 12.71355 0.94496 36758 ft 488 kts 145°
2026-04-22 16:56 12.65980 0.98696 36752 ft 485 kts 145°
2026-04-22 16:56 12.60622 1.02879 36755 ft 484 kts 145°
2026-04-22 16:57 12.55268 1.07057 36761 ft 484 kts 145°
2026-04-22 16:57 12.49904 1.11240 36763 ft 485 kts 145°
2026-04-22 16:58 12.45440 1.14719 36756 ft 486 kts 145°
2026-04-22 16:58 12.39139 1.19629 36754 ft 488 kts 145°
2026-04-22 16:59 12.33741 1.23832 36758 ft 488 kts 145°
2026-04-22 16:59 12.28345 1.28032 36751 ft 487 kts 145°
2026-04-22 17:00 12.22961 1.32221 36752 ft 486 kts 145°
2026-04-22 17:00 12.14899 1.38488 36752 ft 485 kts 145°
2026-04-22 17:01 12.09530 1.42659 36752 ft 485 kts 145°
2026-04-22 17:01 12.04157 1.46830 36749 ft 485 kts 145°
2026-04-22 17:02 11.98823 1.50970 36740 ft 484 kts 144°
2026-04-22 17:02 11.93468 1.55124 36739 ft 483 kts 144°
2026-04-22 17:03 11.88109 1.59278 36736 ft 484 kts 145°
2026-04-22 17:03 11.82744 1.63435 36735 ft 485 kts 145°
2026-04-22 17:04 11.78240 1.66924 36734 ft 485 kts 144°
2026-04-22 17:04 11.72864 1.71085 36735 ft 485 kts 145°
2026-04-22 17:05 11.67518 1.75223 36730 ft 485 kts 145°
2026-04-22 17:05 11.62133 1.79387 36729 ft 486 kts 144°
2026-04-22 17:06 11.56736 1.83559 36731 ft 488 kts 144°
2026-04-22 17:06 11.51323 1.87741 36729 ft 488 kts 144°
2026-04-22 17:07 11.45906 1.91925 36722 ft 489 kts 144°
2026-04-22 17:07 11.40478 1.96115 36730 ft 490 kts 144°
2026-04-22 17:08 11.35034 2.00315 36736 ft 491 kts 144°
2026-04-22 17:08 11.29583 2.04518 36732 ft 491 kts 144°
2026-04-22 17:09 11.24138 2.08715 36723 ft 490 kts 144°
2026-04-22 17:09 11.18703 2.12903 36727 ft 489 kts 144°
2026-04-22 17:10 11.13277 2.17081 36726 ft 489 kts 144°
2026-04-22 17:10 11.07861 2.21251 36728 ft 489 kts 144°
2026-04-22 17:11 11.02432 2.25428 36732 ft 489 kts 144°
2026-04-22 17:11 10.96812 2.29294 36725 ft 487 kts 151°
2026-04-22 17:12 10.90926 2.32732 36734 ft 488 kts 152°
2026-04-22 17:12 10.85024 2.36164 36731 ft 489 kts 151°
2026-04-22 17:13 10.79129 2.39625 36732 ft 489 kts 151°
2026-04-22 17:13 10.73243 2.43100 36734 ft 489 kts 151°
2026-04-22 17:14 10.67358 2.46576 36740 ft 489 kts 151°
2026-04-22 17:14 10.61479 2.50046 36738 ft 488 kts 151°
2026-04-22 17:15 10.55606 2.53509 36736 ft 488 kts 151°
2026-04-22 17:15 10.49745 2.56964 36745 ft 486 kts 151°
2026-04-22 17:16 10.43900 2.60407 36741 ft 485 kts 151°
2026-04-22 17:16 10.38102 2.63821 36747 ft 485 kts 151°
2026-04-22 17:17 10.32270 2.67254 36747 ft 485 kts 151°
2026-04-22 17:17 10.26434 2.70688 36755 ft 485 kts 151°
2026-04-22 17:18 10.20599 2.74119 36757 ft 485 kts 151°
2026-04-22 17:18 10.14764 2.77549 36757 ft 484 kts 151°
2026-04-22 17:19 10.03127 2.84386 36764 ft 483 kts 151°
2026-04-22 17:20 9.91506 2.91207 36772 ft 483 kts 151°
2026-04-22 17:21 9.82783 2.96324 36772 ft 483 kts 151°
2026-04-22 17:22 9.74079 3.01427 36776 ft 481 kts 151°
2026-04-22 17:23 9.65398 3.06514 36779 ft 480 kts 151°
2026-04-22 17:23 9.56721 3.11595 36782 ft 480 kts 151°
2026-04-22 17:24 9.51192 3.15334 36776 ft 480 kts 134°
2026-04-22 17:24 9.49264 3.18095 36791 ft 482 kts 116°
2026-04-22 17:24 9.48123 3.21286 36784 ft 484 kts 102°
2026-04-22 17:25 9.47805 3.24666 36786 ft 482 kts 89°
2026-04-22 17:25 9.47871 3.28015 36783 ft 484 kts 88°
2026-04-22 17:25 9.48033 3.34846 36790 ft 486 kts 89°
2026-04-22 17:26 9.48083 3.41714 36783 ft 489 kts 89°
2026-04-22 17:26 9.48093 3.48653 36777 ft 489 kts 90°
2026-04-22 17:27 9.47576 3.55451 36771 ft 487 kts 98°
2026-04-22 17:27 9.46529 3.62227 36770 ft 485 kts 99°
2026-04-22 17:28 9.45482 3.68971 36775 ft 484 kts 98°
2026-04-22 17:28 9.44467 3.75710 36776 ft 484 kts 98°
2026-04-22 17:29 9.43467 3.82455 36774 ft 484 kts 99°
2026-04-22 17:29 9.42467 3.89191 36772 ft 484 kts 99°
2026-04-22 17:30 9.41465 3.95930 36775 ft 484 kts 99°
2026-04-22 17:30 9.40460 4.02676 36774 ft 484 kts 99°
2026-04-22 17:31 9.39454 4.09419 36773 ft 484 kts 99°
2026-04-22 17:31 9.38447 4.16162 36768 ft 484 kts 99°
2026-04-22 17:32 9.37437 4.22911 36764 ft 485 kts 99°
2026-04-22 17:32 9.36425 4.29665 36763 ft 485 kts 99°
2026-04-22 17:33 9.35413 4.36419 36767 ft 486 kts 99°
2026-04-22 17:33 9.34397 4.43180 36758 ft 486 kts 99°
2026-04-22 17:34 9.33381 4.49938 36763 ft 485 kts 99°
2026-04-22 17:34 9.32363 4.56695 36761 ft 485 kts 99°
2026-04-22 17:35 9.31345 4.63447 36753 ft 485 kts 99°
2026-04-22 17:35 9.30332 4.70161 36755 ft 486 kts 99°
2026-04-22 17:36 9.29310 4.76918 36752 ft 486 kts 99°
2026-04-22 17:36 9.28287 4.83676 36754 ft 486 kts 99°
2026-04-22 17:37 9.27265 4.90425 36746 ft 486 kts 99°
2026-04-22 17:37 9.26240 4.97183 36747 ft 486 kts 99°
2026-04-22 17:38 9.25215 5.03939 36745 ft 485 kts 99°
2026-04-22 17:38 9.24196 5.10692 36748 ft 485 kts 99°
2026-04-22 17:39 9.23180 5.17443 36745 ft 485 kts 99°
2026-04-22 17:40 9.21651 5.27569 36750 ft 485 kts 99°
2026-04-22 17:40 9.20630 5.34314 36472 ft 485 kts 99°
2026-04-22 17:40 9.20121 5.37679 36004 ft 481 kts 98°
2026-04-22 17:41 9.19616 5.41010 35571 ft 476 kts 98°
2026-04-22 17:41 9.19115 5.44310 35090 ft 472 kts 98°
2026-04-22 17:41 9.18612 5.47581 34628 ft 469 kts 98°
2026-04-22 17:41 9.18110 5.50823 34153 ft 466 kts 97°
2026-04-22 17:42 9.17608 5.54055 33674 ft 464 kts 97°
2026-04-22 17:42 9.17109 5.57276 33149 ft 461 kts 97°
2026-04-22 17:42 9.16781 5.59390 32848 ft 458 kts 96°
2026-04-22 17:42 9.16124 5.63628 32227 ft 453 kts 96°
2026-04-22 17:43 9.15638 5.66766 31776 ft 450 kts 96°
2026-04-22 17:43 9.15155 5.69880 31323 ft 446 kts 95°
2026-04-22 17:43 9.14676 5.72973 30869 ft 443 kts 95°
2026-04-22 17:43 9.14201 5.76041 30394 ft 441 kts 95°
2026-04-22 17:44 9.13727 5.79098 29946 ft 438 kts 94°
2026-04-22 17:44 9.13256 5.82137 29400 ft 436 kts 94°
2026-04-22 17:44 9.12787 5.85160 28864 ft 434 kts 95°
2026-04-22 17:44 9.12321 5.88164 28338 ft 431 kts 95°
2026-04-22 17:45 9.11856 5.91153 27835 ft 429 kts 95°
2026-04-22 17:45 9.11395 5.94121 27327 ft 426 kts 96°
2026-04-22 17:45 9.10936 5.97073 26830 ft 424 kts 96°
2026-04-22 17:45 9.10478 6.00012 26341 ft 422 kts 96°
2026-04-22 17:46 9.10098 6.02938 25851 ft 418 kts 92°
2026-04-22 17:46 9.09939 6.05864 25367 ft 415 kts 90°
2026-04-22 17:46 9.09814 6.08778 24875 ft 414 kts 91°
2026-04-22 17:46 9.09693 6.11649 24399 ft 413 kts 91°
2026-04-22 17:47 9.09564 6.14583 23916 ft 412 kts 91°
2026-04-22 17:47 9.09432 6.17435 23451 ft 410 kts 92°
2026-04-22 17:47 9.09294 6.20313 22912 ft 409 kts 92°
2026-04-22 17:47 9.09153 6.23179 22417 ft 406 kts 92°
2026-04-22 17:48 9.09058 6.25100 22105 ft 404 kts 92°
2026-04-22 17:48 9.08872 6.28840 21508 ft 400 kts 92°
2026-04-22 17:48 9.08733 6.31644 21050 ft 397 kts 92°
2026-04-22 17:48 9.08596 6.34421 20617 ft 393 kts 92°
2026-04-22 17:49 9.08460 6.37164 20188 ft 389 kts 92°
2026-04-22 17:49 9.08325 6.39881 19755 ft 385 kts 92°
2026-04-22 17:49 9.08195 6.42571 19323 ft 382 kts 91°
2026-04-22 17:49 9.08252 6.45240 18931 ft 377 kts 84°
2026-04-22 17:50 9.08621 6.47841 18591 ft 371 kts 79°
2026-04-22 17:50 9.09063 6.50403 18169 ft 368 kts 79°
2026-04-22 17:50 9.09358 6.52129 17880 ft 367 kts 80°
2026-04-22 17:50 9.09787 6.54664 17414 ft 364 kts 80°
2026-04-22 17:51 9.10209 6.57179 16970 ft 361 kts 80°
2026-04-22 17:51 9.10625 6.59671 16539 ft 358 kts 80°
2026-04-22 17:51 9.11035 6.62142 16093 ft 355 kts 80°
2026-04-22 17:51 9.11441 6.64591 15685 ft 352 kts 80°
2026-04-22 17:52 9.11843 6.67024 15255 ft 349 kts 80°
2026-04-22 17:52 9.12242 6.69436 14840 ft 347 kts 80°
2026-04-22 17:52 9.12638 6.71835 14410 ft 344 kts 80°
2026-04-22 17:52 9.13030 6.74216 13982 ft 342 kts 80°
2026-04-22 17:53 9.13421 6.76583 13552 ft 340 kts 80°
2026-04-22 17:53 9.13809 6.78940 13093 ft 338 kts 80°
2026-04-22 17:53 9.14188 6.81244 12660 ft 335 kts 80°
2026-04-22 17:53 9.14567 6.83550 12245 ft 331 kts 80°
2026-04-22 17:54 9.14945 6.85845 11833 ft 328 kts 79°
2026-04-22 17:54 9.15317 6.88112 11427 ft 325 kts 79°
2026-04-22 17:54 9.15686 6.90356 11032 ft 322 kts 79°
2026-04-22 17:54 9.16051 6.92577 10637 ft 319 kts 79°
2026-04-22 17:55 9.16413 6.94779 10276 ft 315 kts 78°
2026-04-22 17:55 9.16764 6.96925 10115 ft 304 kts 78°
2026-04-22 17:55 9.17104 6.98999 9975 ft 293 kts 78°
2026-04-22 17:55 9.17434 7.01012 9771 ft 287 kts 78°
2026-04-22 17:56 9.17761 7.02998 9381 ft 286 kts 78°
2026-04-22 17:56 9.18087 7.04979 9041 ft 284 kts 78°
2026-04-22 17:56 9.18410 7.06944 8721 ft 282 kts 78°
2026-04-22 17:56 9.18730 7.08895 8402 ft 280 kts 78°
2026-04-22 17:57 9.19048 7.10830 8084 ft 278 kts 78°
2026-04-22 17:57 9.19364 7.12757 7774 ft 277 kts 78°
2026-04-22 17:57 9.19677 7.14673 7480 ft 275 kts 78°
2026-04-22 17:57 9.19988 7.16576 7178 ft 274 kts 78°
2026-04-22 17:58 9.20301 7.18481 6870 ft 273 kts 79°
2026-04-22 17:58 9.20612 7.20379 6579 ft 273 kts 79°
2026-04-22 17:58 9.20921 7.22273 6260 ft 273 kts 79°
2026-04-22 17:58 9.21231 7.24167 5955 ft 273 kts 79°
2026-04-22 17:59 9.21540 7.26059 5638 ft 272 kts 79°
2026-04-22 17:59 9.21849 7.27951 5339 ft 272 kts 79°
2026-04-22 17:59 9.22154 7.29839 5079 ft 268 kts 81°
2026-04-22 17:59 9.22042 7.31646 4889 ft 253 kts 109°
2026-04-22 18:00 9.21525 7.32675 4760 ft 243 kts 124°
2026-04-22 18:00 9.20252 7.34481 4498 ft 229 kts 126°
2026-04-22 18:00 9.19346 7.35780 4315 ft 223 kts 126°
2026-04-22 18:00 9.18304 7.36920 4132 ft 222 kts 152°
2026-04-22 18:01 9.16830 7.37288 3997 ft 222 kts 189°
2026-04-22 18:01 9.15440 7.36771 3893 ft 209 kts 213°
2026-04-22 18:01 9.14273 7.35982 3736 ft 201 kts 217°
2026-04-22 18:01 9.13151 7.35181 3568 ft 192 kts 217°
2026-04-22 18:02 9.12086 7.34420 3398 ft 176 kts 217°
2026-04-22 18:02 9.11138 7.33744 3240 ft 160 kts 217°
2026-04-22 18:02 9.10249 7.33106 3050 ft 157 kts 217°
2026-04-22 18:02 9.09376 7.32483 2870 ft 149 kts 217°
2026-04-22 18:03 9.08543 7.31888 2672 ft 145 kts 217°
2026-04-22 18:03 9.07712 7.31297 2512 ft 147 kts 217°
2026-04-22 18:03 9.06876 7.30704 2324 ft 145 kts 217°
2026-04-22 18:03 9.06052 7.30120 2139 ft 144 kts 217°
2026-04-22 18:04 9.05239 7.29543 1947 ft 141 kts 218°
2026-04-22 18:04 9.04436 7.28975 1726 ft 140 kts 217°
2026-04-22 18:04 9.03632 7.28404 1523 ft 143 kts 215°
2026-04-22 18:04 9.02799 7.27821 1338 ft 147 kts 216°
2026-04-22 18:05 9.01974 7.27233 1161 ft 144 kts 216°
2026-04-22 18:05 9.01215 7.26694 1123 ft 113 kts 215°
2026-04-22 18:05 9.00725 7.26349 1111 ft 59 kts 215°
2026-04-22 18:05 9.00421 7.26133 1111 ft 43 kts 215°
2026-04-22 18:06 9.00268 7.26035 1107 ft 21 kts 200°
2026-04-22 18:06 9.00135 7.26025 1109 ft 17 kts 167°
2026-04-22 18:06 9.00105 7.26110 1105 ft 15 kts 51°
2026-04-22 18:06 9.00191 7.26176 1106 ft 16 kts 35°
2026-04-22 18:07 9.00279 7.26239 1108 ft 16 kts 35°
2026-04-22 18:07 9.00368 7.26301 1109 ft 16 kts 35°
2026-04-22 18:07 9.00456 7.26364 1108 ft 16 kts 35°
2026-04-22 18:07 9.00544 7.26427 1109 ft 15 kts 34°
2026-04-22 18:08 9.00633 7.26489 1113 ft 15 kts 34°
2026-04-22 18:08 9.00703 7.26538 1115 ft 10 kts 34°
2026-04-22 18:08 9.00760 7.26577 1116 ft 10 kts 35°
2026-04-22 18:08 9.00795 7.26629 1121 ft 9 kts 92°
2026-04-22 18:09 9.00786 7.26683 1132 ft 7 kts 123°
2026-04-22 18:09 9.00742 7.26695 1133 ft 6 kts 180°
2026-04-22 18:09 9.00715 7.26695 1130 ft 2 kts 180°
2026-04-22 18:09 9.00706 7.26695 1133 ft 0 kts 180°
2026-04-22 18:10 9.00705 7.26695 1133 ft 0 kts 180°